Location: Castro Valley
(37.6940°N, 122.0850°W)
Time: 03:39:38
(UTC-07:00)

Amateur Radio Satellites - All Passes

Search period start: 26 July 2017 03:09
Search period end: 27 July 2017 03:09
Location: Castro Valley, 37.6940°N, 122.0850°W

Satellite Date Start Highest point End Downlink Frequencies (MHz)
Time Altitude Azimuth
BUGSAT 1 26 Jul 03:13:53 03:16:01 14° 294° (WNW) 03:18:08 437.445
BEESAT 26 Jul 03:21:11 03:25:55 70° 75° (ENE) 03:30:41 436.000
AO-7 26 Jul 03:25:48 03:31:55 22° 94° (E) 03:37:57 .
nSIGHT-1 26 Jul 03:28:19 03:31:30 56° 38° (NE) 03:34:40 .
Gurwin Techsat 1B 26 Jul 03:28:49 03:34:03 58° 287° (WNW) 03:39:15 435.225
ITUPSAT 1 26 Jul 03:35:07 03:39:55 86° 260° (W) 03:44:43 437.325
MOZHAYETS 4 26 Jul 04:12:34 04:16:57 45° 261° (W) 04:21:21
SRMSAT 26 Jul 04:20:10 04:22:45 13° 183° (S) 04:25:20 437.500
ISS 26 Jul 04:23:39 04:26:40 35° 226° (SW) 04:29:40 437.550
PCSat 26 Jul 04:24:57 04:29:31 28° 108° (ESE) 04:34:07 145.827
KKS-1 26 Jul 04:45:20 04:49:29 39° 71° (ENE) 04:53:41 437.445
ITAMSAT 1 26 Jul 04:47:58 04:53:12 89° 272° (W) 04:58:23 435.822/435.867
CUBESAT XI-V 26 Jul 04:49:54 04:54:28 82° 77° (ENE) 04:59:05 437.345
BEESAT 26 Jul 05:03:07 05:04:07 11° 269° (W) 05:05:07 436.000
nSIGHT-1 26 Jul 05:06:09 05:07:32 12° 232° (SW) 05:08:55 .
YUBILEINY 26 Jul 05:07:43 05:14:36 25° 69° (ENE) 05:21:25 435.215
STARS 26 Jul 05:12:02 05:15:57 32° 70° (ENE) 05:19:53 437.465
AO-7 26 Jul 05:16:58 05:25:18 74° 291° (WNW) 05:33:34 .
SO-50 26 Jul 05:37:37 05:41:14 24° 112° (ESE) 05:44:51 436.795
PCSat 26 Jul 06:07:45 06:12:44 37° 305° (NW) 06:17:46 145.827
XW-2D 26 Jul 06:21:26 06:23:46 16° 94° (E) 06:26:07 145.860 - 145.880
KKS-1 26 Jul 06:23:14 06:26:10 17° 266° (W) 06:29:06 437.445
ITAMSAT 1 26 Jul 06:30:47 06:31:50 11° 301° (WNW) 06:32:52 435.822/435.867
XW-2B 26 Jul 06:31:07 06:33:56 20° 95° (E) 06:36:45 145.730 - 145.750
STRAND 1 26 Jul 06:32:13 06:35:19 16° 63° (ENE) 06:38:25 437.568
DOVE 4 26 Jul 06:33:06 06:38:22 72° 101° (E) 06:43:22 437.250
CUTE-I 26 Jul 06:44:32 06:49:08 29° 96° (E) 06:53:43 437.470
XW-2C 26 Jul 06:48:01 06:51:27 33° 97° (E) 06:54:53 145.795 - 145.815
STARS 26 Jul 06:48:56 06:52:17 21° 265° (W) 06:55:40 437.465
NUDT-PHONESAT 26 Jul 06:50:57 06:54:04 26° 96° (E) 06:57:10 437.300
YUBILEINY 26 Jul 07:03:25 07:12:03 66° 268° (W) 07:20:36 435.215
HO-68 26 Jul 07:04:29 07:08:34 16° 91° (E) 07:12:36 435.675
KAITUO 1B 26 Jul 07:06:51 07:10:26 43° 99° (E) 07:14:00 145.475/437.950
AO-7 26 Jul 07:12:12 07:16:38 16° 310° (NW) 07:21:03 .
LilacSat-2 26 Jul 07:12:35 07:16:23 79° 100° (E) 07:20:11 437.200
SO-50 26 Jul 07:17:23 07:21:30 33° 308° (NW) 07:25:38 436.795
XW-2F 26 Jul 07:24:36 07:28:20 81° 285° (WNW) 07:32:06 145.980 - 146.000
CUTE 1.7 + AOD 2 26 Jul 07:36:33 07:39:46 21° 94° (E) 07:42:58 437.475
SEEDS 26 Jul 07:46:40 07:49:23 17° 93° (E) 07:52:06 437.485
XW-2A 26 Jul 07:49:41 07:51:21 13° 94° (E) 07:53:01 145.665 - 145.685
XW-2D 26 Jul 07:54:42 07:57:59 29° 288° (WNW) 08:01:16 145.860 - 145.880
XW-2B 26 Jul 08:05:01 08:08:02 23° 289° (WNW) 08:11:04 145.730 - 145.750
STRAND 1 26 Jul 08:08:55 08:13:58 58° 259° (WSW) 08:19:04 437.568
DOVE 4 26 Jul 08:12:47 08:15:18 14° 298° (WNW) 08:17:47 437.250
XW-2C 26 Jul 08:23:14 08:25:20 14° 292° (WNW) 08:27:26 145.795 - 145.815
CUTE-I 26 Jul 08:24:24 08:29:08 33° 292° (WNW) 08:33:50 437.470
UWE-3 26 Jul 08:24:49 08:27:55 20° 94° (E) 08:30:58 435.000/436.395/437.385
NUDT-PHONESAT 26 Jul 08:25:16 08:27:45 17° 291° (WNW) 08:30:14 437.300
AAUSAT CUBESAT 2 26 Jul 08:25:52 08:29:02 21° 95° (E) 08:32:12 437.432
ZACube-1 26 Jul 08:36:13 08:38:27 14° 92° (E) 08:40:41 437.345
KAITUO 1B 26 Jul 08:42:54 08:44:01 11° 294° (WNW) 08:45:08 145.475/437.950
FO-29 26 Jul 08:43:17 08:49:38 29° 63° (ENE) 08:56:04 435.910
HO-68 26 Jul 08:49:48 08:56:59 82° 287° (WNW) 09:04:07 435.675
Oscar 11 26 Jul 08:59:18 09:02:21 19° 94° (E) 09:05:22 .
CUBEBUG 2 26 Jul 09:05:12 09:09:25 72° 284° (WNW) 09:13:32 437.445
CUTE 1.7 + AOD 2 26 Jul 09:11:54 09:15:34 29° 289° (WNW) 09:19:16 437.475
AO-73 26 Jul 09:14:16 09:18:05 35° 98° (E) 09:21:53 145.935
XW-2A 26 Jul 09:21:17 09:24:07 26° 288° (WNW) 09:26:56 145.665 - 145.685
SEEDS 26 Jul 09:21:18 09:25:09 36° 288° (WNW) 09:29:02 437.485
TIGRISAT 26 Jul 09:33:05 09:36:48 24° 69° (ENE) 09:40:29 435.000
PRISM 26 Jul 09:56:31 10:00:16 36° 72° (ENE) 10:04:04 437.425
UWE-3 26 Jul 10:00:48 10:04:22 28° 289° (WNW) 10:07:54 435.000/436.395/437.385
AAUSAT CUBESAT 2 26 Jul 10:00:53 10:04:27 28° 289° (WNW) 10:08:02 437.432
ZACube-1 26 Jul 10:11:02 10:14:54 39° 287° (WNW) 10:18:45 437.345
UNISAT 6 26 Jul 10:24:42 10:29:21 84° 258° (WSW) 10:33:57 437.425
FO-29 26 Jul 10:26:35 10:34:02 60° 260° (W) 10:41:50 435.910
Oscar 11 26 Jul 10:34:39 10:38:31 33° 289° (WNW) 10:42:24 .
AIST 2D 26 Jul 10:36:27 10:36:52 10° 67° (ENE) 10:37:16 435.315
HO-68 26 Jul 10:39:57 10:43:37 15° 305° (NW) 10:47:16 435.675
M-CUBED/EXP-1 PRIME 26 Jul 10:44:18 10:47:54 84° 76° (ENE) 10:51:52 437.505
DELFI C3 26 Jul 10:49:40 10:53:41 90° 58° (ENE) 10:57:42 145.870
AO-73 26 Jul 10:51:26 10:54:01 16° 293° (WNW) 10:56:35 145.935
NO-84 26 Jul 10:51:52 10:54:49 79° 132° (SE) 10:57:57 435.350 FM
EO-88 26 Jul 10:55:26 10:59:03 63° 101° (E) 11:02:39 145.990 - 145.960
EO-79 26 Jul 10:58:43 11:00:04 11° 64° (ENE) 11:01:24 145.935-145.965
TIGRISAT 26 Jul 11:09:15 11:13:19 30° 263° (W) 11:17:21 435.000
PRISM 26 Jul 11:33:13 11:35:39 15° 266° (W) 11:38:08 437.425
ESTCUBE 1 26 Jul 11:54:15 11:58:00 25° 96° (E) 12:01:44 437.505/2401.250
DUCHIFAT 1 26 Jul 12:01:45 12:05:49 47° 73° (ENE) 12:09:53 145.980
AIST 2D 26 Jul 12:06:21 12:09:39 40° 262° (W) 12:12:57 435.315
POLYITAN 1 26 Jul 12:06:23 12:10:38 69° 75° (ENE) 12:14:52 437.675
QB50P2 26 Jul 12:19:31 12:23:47 75° 258° (WSW) 12:28:04 145.880/145.840
BUGSAT 1 26 Jul 12:25:03 12:28:28 24° 69° (ENE) 12:31:53 437.445
LO-87 26 Jul 12:28:11 12:31:45 65° 284° (WNW) 12:35:17 145.935 - 145.965
NANOSAT C BR1 26 Jul 12:30:02 12:34:16 69° 259° (W) 12:38:30 145.865
EO-79 26 Jul 12:31:04 12:35:17 60° 260° (W) 12:39:30 145.935-145.965
NO-84 26 Jul 12:31:23 12:32:43 12° 333° (NNW) 12:34:06 435.350 FM
Oscar 19 26 Jul 12:32:33 12:35:19 15° 63° (ENE) 12:38:05 437.125/150
VELOX 1 26 Jul 12:34:24 12:36:42 14° 92° (E) 12:39:00 145.980
BEESAT 3 26 Jul 12:41:14 12:45:12 84° 121° (ESE) 12:49:14 437.485
AO-85 26 Jul 12:49:28 12:53:30 80° 300° (WNW) 12:57:26 145.980
Gurwin Techsat 1B 26 Jul 13:09:39 13:13:39 22° 66° (ENE) 13:17:40 435.225
SPROUT 26 Jul 13:11:54 13:15:59 44° 99° (E) 13:20:02 437.525
PCSat 26 Jul 13:14:44 13:18:24 18° 47° (NE) 13:22:03 145.827
50 SAT 26 Jul 13:17:51 13:19:44 14° 94° (E) 13:21:37 437.505
BEESAT 2 26 Jul 13:24:40 13:28:37 81° 119° (ESE) 13:32:40 435.950
ESTCUBE 1 26 Jul 13:30:54 13:34:43 27° 291° (WNW) 13:38:33 437.505/2401.250
DUCHIFAT 1 26 Jul 13:39:46 13:41:42 13° 268° (W) 13:43:37 145.980
BUGSAT 1 26 Jul 14:00:11 14:03:42 25° 264° (W) 14:07:14 437.445
O/OREOS (USA 219) 26 Jul 14:08:07 14:08:56 10° 97° (E) 14:09:44 437.305
Oscar 19 26 Jul 14:09:01 14:14:04 64° 258° (WSW) 14:19:09 437.125/150
VELOX 1 26 Jul 14:09:04 14:13:23 48° 287° (WNW) 14:17:39 145.980
DX 1 26 Jul 14:09:15 14:13:30 47° 100° (E) 14:17:42 434.975-435.025
SO-50 26 Jul 14:10:36 14:13:22 16° 45° (NE) 14:16:09 436.795
BEESAT 3 26 Jul 14:22:30 14:23:20 11° 317° (NW) 14:24:11 437.485
AO-7 26 Jul 14:22:54 14:29:39 28° 58° (ENE) 14:36:25 .
ITAMSAT 1 26 Jul 14:27:45 14:30:21 14° 62° (ENE) 14:32:57 435.822/435.867
Gurwin Techsat 1B 26 Jul 14:48:14 14:53:16 43° 261° (W) 14:58:20 435.225
UKube-1 26 Jul 14:48:23 14:52:45 88° 108° (ESE) 14:57:04 .
RS-15 26 Jul 14:48:33 14:58:59 36° 104° (ESE) 15:09:34 29.354- 29.394
SPROUT 26 Jul 14:49:08 14:51:28 15° 294° (WNW) 14:53:48 437.525
50 SAT 26 Jul 14:49:33 14:52:29 26° 288° (WNW) 14:55:23 437.505
PCSat 26 Jul 14:56:54 15:02:18 68° 246° (WSW) 15:07:39 145.827
BEESAT 2 26 Jul 15:05:55 15:06:56 11° 317° (NW) 15:07:57 435.950
BEESAT 26 Jul 15:23:58 15:27:26 20° 94° (E) 15:30:54 436.000
ITUPSAT 1 26 Jul 15:37:53 15:41:56 27° 96° (E) 15:45:58 437.325
O/OREOS (USA 219) 26 Jul 15:43:17 15:47:43 62° 292° (WNW) 15:52:10 437.305
DX 1 26 Jul 15:46:47 15:49:14 15° 295° (WNW) 15:51:41 434.975-435.025
SO-50 26 Jul 15:49:43 15:54:14 64° 242° (WSW) 15:58:46 436.795
ITAMSAT 1 26 Jul 16:03:58 16:09:09 71° 257° (WSW) 16:14:24 435.822/435.867
MOZHAYETS 4 26 Jul 16:09:07 16:13:31 46° 99° (E) 16:17:53
AO-7 26 Jul 16:13:32 16:21:47 65° 256° (WSW) 16:30:07 .
CUBESAT XI-V 26 Jul 16:48:44 16:52:29 23° 95° (E) 16:56:13 437.345
RS-15 26 Jul 16:58:33 17:10:40 67° 305° (NW) 17:23:01 29.354- 29.394
BEESAT 26 Jul 17:00:56 17:05:18 38° 290° (WNW) 17:09:40 436.000
ITUPSAT 1 26 Jul 17:15:39 17:19:40 28° 292° (WNW) 17:23:41 437.325
NO-84 26 Jul 17:26:15 17:29:30 26° 36° (NE) 17:32:57 435.350 FM
XW-2C 26 Jul 17:28:56 17:30:45 13° 67° (ENE) 17:32:33 145.795 - 145.815
HO-68 26 Jul 17:35:12 17:36:33 11° 52° (NE) 17:37:54 435.675
DOVE 4 26 Jul 17:35:52 17:40:38 56° 74° (ENE) 17:45:41 437.250
KAITUO 1B 26 Jul 17:46:03 17:48:19 16° 68° (ENE) 17:50:36 145.475/437.950
MOZHAYETS 4 26 Jul 17:47:29 17:50:16 16° 294° (WNW) 17:53:02
LilacSat-2 26 Jul 17:52:48 17:56:02 27° 71° (ENE) 17:59:15 437.200
XW-2F 26 Jul 18:03:33 18:06:55 33° 73° (ENE) 18:10:18 145.980 - 146.000
CUTE-I 26 Jul 18:04:18 18:09:16 40° 70° (ENE) 18:14:15 437.470
YUBILEINY 26 Jul 18:06:30 18:13:50 31° 84° (E) 18:21:09 435.215
KKS-1 26 Jul 18:14:03 18:18:32 78° 284° (WNW) 18:22:58 437.445
CUBESAT XI-V 26 Jul 18:25:43 18:29:50 31° 290° (WNW) 18:33:58 437.345
CUTE 1.7 + AOD 2 26 Jul 18:28:59 18:30:36 12° 65° (ENE) 18:32:14 437.475
XW-2D 26 Jul 18:33:12 18:36:57 86° 261° (W) 18:40:43 145.860 - 145.880
STARS 26 Jul 18:38:41 18:43:07 80° 104° (ESE) 18:47:28 437.465
XW-2B 26 Jul 18:43:22 18:47:05 66° 260° (W) 18:50:49 145.730 - 145.750
XW-2C 26 Jul 19:01:06 19:04:35 36° 262° (W) 19:08:05 145.795 - 145.815
NUDT-PHONESAT 26 Jul 19:01:15 19:04:50 50° 260° (W) 19:08:26 437.300
NO-84 26 Jul 19:03:21 19:07:04 40° 231° (SW) 19:11:00 435.350 FM
HO-68 26 Jul 19:15:48 19:22:50 62° 70° (ENE) 19:29:54 435.675
DOVE 4 26 Jul 19:15:56 19:18:41 15° 270° (W) 19:21:32 437.250
AAUSAT CUBESAT 2 26 Jul 19:16:02 19:17:16 11° 65° (ENE) 19:18:29 437.432
RS-15 26 Jul 19:16:48 19:26:11 24° 333° (NNW) 19:35:36 29.354- 29.394
KAITUO 1B 26 Jul 19:18:51 19:22:04 28° 263° (W) 19:25:19 145.475/437.950
UWE-3 26 Jul 19:20:27 19:23:05 15° 66° (ENE) 19:25:41 435.000/436.395/437.385
Tancredo 1 26 Jul 19:22:00 19:24:49 45° 136° (SE) 19:27:38 437.200
ISS 26 Jul 19:26:42 19:28:51 17° 130° (SE) 19:30:59 437.550
LilacSat-2 26 Jul 19:27:50 19:30:18 17° 266° (W) 19:32:47 437.200
ZACube-1 26 Jul 19:32:05 19:32:44 10° 64° (ENE) 19:33:24 437.345
XW-2F 26 Jul 19:39:13 19:41:09 14° 267° (W) 19:43:04 145.980 - 146.000
CUTE-I 26 Jul 19:45:09 19:49:24 24° 265° (W) 19:53:40 437.470
XW-2A 26 Jul 19:49:48 19:53:09 64° 76° (ENE) 19:56:30 145.665 - 145.685
Oscar 11 26 Jul 19:53:46 19:55:24 12° 65° (ENE) 19:57:02 .
CUBEBUG 2 26 Jul 20:00:24 20:05:04 73° 76° (ENE) 20:09:40 437.445
YUBILEINY 26 Jul 20:01:32 20:10:06 54° 282° (WNW) 20:18:44 435.215
CUTE 1.7 + AOD 2 26 Jul 20:01:51 20:05:56 53° 260° (W) 20:10:03 437.475
nSIGHT-1 26 Jul 20:05:58 20:09:04 47° 136° (SE) 20:12:12 .
AO-73 26 Jul 20:07:59 20:11:29 24° 70° (ENE) 20:14:56 145.935
SEEDS 26 Jul 20:10:19 20:14:26 69° 259° (W) 20:18:35 437.485
STRAND 1 26 Jul 20:21:13 20:26:15 55° 101° (E) 20:31:13 437.568
AAUSAT CUBESAT 2 26 Jul 20:48:11 20:52:12 55° 260° (W) 20:56:15 437.432
UWE-3 26 Jul 20:54:43 20:59:09 48° 261° (W) 21:03:29 435.000/436.395/437.385
Tancredo 1 26 Jul 20:58:17 21:00:22 17° 333° (NNW) 21:02:27 437.200
BEESAT 3 26 Jul 21:00:02 21:03:26 26° 51° (NE) 21:06:48 437.485
ISS 26 Jul 21:01:57 21:05:03 42° 325° (NW) 21:08:11 437.550
ZACube-1 26 Jul 21:04:00 21:08:26 69° 258° (WSW) 21:12:48 437.345
HO-68 26 Jul 21:05:33 21:10:58 23° 266° (W) 21:16:24 435.675
AO-85 26 Jul 21:21:37 21:25:43 47° 57° (ENE) 21:30:06 145.980
Oscar 11 26 Jul 21:26:49 21:31:01 56° 260° (W) 21:35:15 .
EO-88 26 Jul 21:31:53 21:34:35 20° 70° (ENE) 21:37:17 145.990 - 145.960
DELFI C3 26 Jul 21:33:00 21:36:37 36° 73° (ENE) 21:40:16 145.870
RS-15 26 Jul 21:37:30 21:45:15 18° 10° (N) 21:52:49 29.354- 29.394
FO-29 26 Jul 21:40:36 21:45:57 24° 90° (E) 21:50:49 435.910
nSIGHT-1 26 Jul 21:43:09 21:45:38 20° 332° (NNW) 21:48:07 .
AO-73 26 Jul 21:43:48 21:47:35 27° 264° (W) 21:51:17 145.935
BEESAT 2 26 Jul 21:44:18 21:47:47 26° 52° (NE) 21:51:12 435.950
STRAND 1 26 Jul 22:01:46 22:04:56 17° 296° (WNW) 22:08:05 437.568
UNISAT 6 26 Jul 22:19:04 22:22:24 22° 95° (E) 22:25:42 437.425
BEESAT 3 26 Jul 22:37:40 22:40:54 24° 248° (WSW) 22:44:05 437.485
ISS 26 Jul 22:41:27 22:42:13 11° 343° (NNW) 22:43:00 437.550
ESTCUBE 1 26 Jul 22:52:28 22:55:37 19° 67° (ENE) 22:58:46 437.505/2401.250
TIGRISAT 26 Jul 23:02:00 23:06:16 64° 101° (E) 23:10:28 435.000
LO-87 26 Jul 23:02:09 23:05:27 33° 73° (ENE) 23:08:46 145.935 - 145.965
AO-85 26 Jul 23:03:08 23:05:49 16° 249° (WSW) 23:08:35 145.980
EO-88 26 Jul 23:05:16 23:08:07 21° 264° (W) 23:10:59 145.990 - 145.960
DELFI C3 26 Jul 23:09:23 23:11:30 14° 267° (W) 23:13:38 145.870
PRISM 26 Jul 23:14:11 23:18:22 80° 102° (ESE) 23:22:32 437.425
BEESAT 2 26 Jul 23:22:06 23:25:25 25° 248° (WSW) 23:28:41 435.950
FO-29 26 Jul 23:24:40 23:31:24 52° 290° (WNW) 23:37:21 435.910
JUGNU 26 Jul 23:25:45 23:28:03 12° 173° (S) 23:30:21 437.505
VELOX 1 26 Jul 23:31:36 23:32:26 10° 62° (ENE) 23:33:15 145.980
AIST 2D 26 Jul 23:33:58 23:36:03 15° 94° (E) 23:38:07 435.315
RS-15 26 Jul 23:51:25 00:02:39 40° 43° (NE) 00:13:18 29.354- 29.394
POLYITAN 1 26 Jul 23:54:56 23:56:44 12° 92° (E) 23:58:30 437.675
UNISAT 6 26 Jul 23:55:25 23:59:05 28° 290° (WNW) 00:02:42 437.425
M-CUBED/EXP-1 PRIME 26 Jul 23:57:56 00:02:37 86° 108° (ESE) 00:07:15 437.505
SPROUT 27 Jul 00:03:26 00:07:02 27° 70° (ENE) 00:10:40 437.525
QB50P2 27 Jul 00:07:00 00:10:05 20° 94° (E) 00:13:09 145.880/145.840
NANOSAT C BR1 27 Jul 00:16:50 00:19:59 21° 95° (E) 00:23:07 145.865
O/OREOS (USA 219) 27 Jul 00:16:55 00:19:51 17° 58° (ENE) 00:22:48 437.305
EO-79 27 Jul 00:18:00 00:21:25 24° 96° (E) 00:24:49 145.935-145.965
ESTCUBE 1 27 Jul 00:28:00 00:32:07 36° 262° (W) 00:36:17 437.505/2401.250
LO-87 27 Jul 00:37:16 00:38:58 13° 267° (W) 00:40:40 145.935 - 145.965
TIGRISAT 27 Jul 00:41:39 00:42:21 10° 297° (WNW) 00:43:03 435.000
DX 1 27 Jul 01:02:53 01:06:46 32° 70° (ENE) 01:10:40 434.975-435.025
VELOX 1 27 Jul 01:03:50 01:08:14 71° 258° (WSW) 01:12:41 145.980
AIST 2D 27 Jul 01:06:19 01:09:15 26° 288° (WNW) 01:12:11 435.315
JUGNU 27 Jul 01:13:35 01:16:13 13° 184° (S) 01:18:51 437.505
50 SAT 27 Jul 01:18:12 01:21:34 70° 75° (ENE) 01:24:58 437.505
DUCHIFAT 1 27 Jul 01:22:47 01:26:57 71° 285° (WNW) 01:31:05 145.980
POLYITAN 1 27 Jul 01:28:43 01:32:44 47° 287° (WNW) 01:36:45 437.675
M-CUBED/EXP-1 PRIME 27 Jul 01:35:11 01:36:19 11° 303° (WNW) 01:37:26 437.505
SPROUT 27 Jul 01:39:26 01:42:53 23° 265° (W) 01:46:19 437.525
UKube-1 27 Jul 01:40:36 01:44:49 57° 73° (ENE) 01:49:04 .
QB50P2 27 Jul 01:42:12 01:45:53 30° 289° (WNW) 01:49:32 145.880/145.840
BUGSAT 1 27 Jul 01:42:58 01:46:56 49° 100° (E) 01:50:51 437.445
Tancredo 1 27 Jul 01:47:08 01:49:41 26° 32° (NNE) 01:52:13 437.200
NANOSAT C BR1 27 Jul 01:52:05 01:55:41 28° 290° (WNW) 01:59:15 145.865
EO-79 27 Jul 01:53:38 01:57:04 25° 291° (WNW) 02:00:29 145.935-145.965
O/OREOS (USA 219) 27 Jul 01:55:12 01:59:28 44° 254° (WSW) 02:03:44 437.305
ISS 27 Jul 01:55:30 01:57:38 16° 24° (NNE) 01:59:45 437.550
RS-15 27 Jul 02:04:02 02:15:49 65° 247° (WSW) 02:26:57 29.354- 29.394
SRMSAT 27 Jul 02:19:07 02:21:26 12° 174° (S) 02:23:45 437.500
Oscar 19 27 Jul 02:22:19 02:27:22 52° 100° (E) 02:32:24 437.125/150
BEESAT 27 Jul 02:28:46 02:32:11 20° 66° (ENE) 02:35:37 436.000
nSIGHT-1 27 Jul 02:35:09 02:38:03 30° 32° (NNE) 02:40:57 .
DX 1 27 Jul 02:39:46 02:42:58 20° 265° (W) 02:46:12 434.975-435.025
ITUPSAT 1 27 Jul 02:42:51 02:46:50 27° 68° (ENE) 02:50:50 437.325
